STARLINK-31375

decayed
NORAD ID: 59472 Int'l Des: 2024-068 Owner: SPXS Country: US Constellation: starlink
LEOCIRCULAR
Group

About STARLINK-31375

Description loading...

Altitude History

Altitude vs Time

uPlot chart will show altitude changes over time

Two-Line Element Set

1 59472U 24068T 24307.40978390 .02163447 47257-2 19402-2 0 9995
2 59472 42.9853 289.7293 0015948 140.9772 347.5546 16.12686236 33288
Epoch: Nov 2, 2024 • Age: 7625 hours

Current Status

Position data unavailable
Launch Date Apr 10, 2024
Age 1.4 years
Decay Date Nov 3, 2024
Type internet

Technical Details

Classification Payload
Mass 730.00 kg
Dry Mass 700.00 kg
Total Mass 730.00 kg
Length 0.30 m
Diameter 4.10 m
Span 29.00 m
Shape Box + pan
Manufacturer SPXS
Bus Type Starlink V2M
Phase Status Reentered
Owner/State SPXS/US

Large Constellations

Loading constellations...